Weather History for KBNO - April, 2014

Change the Weather History Date:

Saturday, April 26, 2014

  Actual Average Record
Temperature  
Mean Temperature 39 °F 46 °F  
Max Temperature 51 °F 60 °F 82 °F (1987)
Min Temperature 27 °F 31 °F 18 °F (2008)
Degree Days  
Heating Degree Days 26 19  
Month to date heating degree days 552 579  
Since 1 July heating degree days 6619 6964  
Cooling Degree Days 0 0  
Month to date cooling degree days 0 0  
Year to date cooling degree days 0 0  
Moisture  
Dew Point 24 °F    
Average Humidity 62    
Maximum Humidity 92    
Minimum Humidity 31    
Precipitation  
Precipitation 0.00 in 0.03 in 0.57 in (2012)
Month to date precipitation 1.08 0.81  
Year to date precipitation 4.52 4.11  
Sea Level Pressure  
Sea Level Pressure 29.77 in    
Wind  
Wind Speed 9 mph (WSW)    
Max Wind Speed 21 mph    
Max Gust Speed 30 mph    
Visibility 10 miles    
Events      
T = Trace of Precipitation, MM = Missing Value Source: NWS Daily Summary

Daily Weather History Graph

Daily Weather History Graph

Search for Another Location

Airport or City:

Trip Planner

Search our weather history database for the weather conditions in past years. The results will help you decide how hot, cold, wet, or windy it might be!

Date:

Astronomy

Apr. 26, 2014 Rise Set
Actual Time 5:55 AM PDT 7:52 PM PDT
Civil Twilight 5:24 AM PDT 8:23 PM PDT
Nautical Twilight 4:46 AM PDT 9:01 PM PDT
Astronomical Twilight 4:05 AM PDT 9:42 PM PDT
Moon 4:28 AM PDT (4/26) 5:21 PM PDT (4/26)
Length of Visible Light 14h 58m
Length of Day
13h 56m
Waning Crescent, 7% of the Moon is Illuminated
Apr 26
Waning Crescent
Apr 28
New
May 6
First Quarter
May 14
Full
May 21
Last Quarter

Hourly Weather History & Observations

Time (PDT) Temp. Windchill Dew Point Humidity Pressure Visibility Wind Dir Wind Speed Gust Speed Precip Events Conditions
12:53 AM 30.9 °F 21.7 °F 28.9 °F 92% 29.73 in 10.0 mi West 11.5 mph - N/A   Clear
1:53 AM 32.0 °F 24.8 °F 28.9 °F 88% 29.75 in 10.0 mi West 8.1 mph - N/A   Clear
2:53 AM 32.0 °F 28.7 °F 27.0 °F 82% 29.76 in 10.0 mi West 3.5 mph - N/A   Clear
3:53 AM 30.9 °F 27.5 °F 28.0 °F 89% 29.76 in 10.0 mi West 3.5 mph - N/A   Scattered Clouds
4:53 AM 28.0 °F 21.7 °F 26.1 °F 92% 29.75 in 10.0 mi SW 5.8 mph - N/A   Partly Cloudy
5:53 AM 28.0 °F 19.3 °F 25.0 °F 88% 29.76 in 10.0 mi SW 9.2 mph - N/A   Clear
6:53 AM 32.0 °F 24.8 °F 28.0 °F 85% 29.77 in 10.0 mi WSW 8.1 mph - N/A   Clear
7:53 AM 37.0 °F 28.9 °F 28.0 °F 70% 29.78 in 10.0 mi West 12.7 mph - N/A   Clear
8:53 AM 37.9 °F 30.0 °F 25.0 °F 60% 29.79 in 10.0 mi West 12.7 mph - N/A   Scattered Clouds
9:53 AM 42.1 °F 36.6 °F 26.1 °F 53% 29.78 in 10.0 mi West 9.2 mph - N/A   Scattered Clouds
10:53 AM 42.1 °F 37.7 °F 26.1 °F 53% 29.78 in 10.0 mi WSW 6.9 mph - N/A   Overcast
11:53 AM 45.0 °F 40.1 °F 26.1 °F 48% 29.77 in 10.0 mi SW 9.2 mph - N/A   Scattered Clouds
12:53 PM 44.1 °F 36.8 °F 25.0 °F 47% 29.77 in 10.0 mi West 16.1 mph 19.6 mph N/A   Overcast
1:53 PM 46.0 °F 39.0 °F 21.0 °F 37% 29.77 in 10.0 mi SW 17.3 mph 20.7 mph N/A   Partly Cloudy
2:53 PM 48.0 °F - 24.1 °F 39% 29.77 in 10.0 mi WSW 12.7 mph - N/A   Partly Cloudy
3:53 PM 50.0 °F - 21.0 °F 32% 29.75 in 10.0 mi SW 16.1 mph - N/A   Overcast
4:53 PM 50.0 °F - 21.0 °F 32% 29.76 in 10.0 mi SW 15.0 mph 20.7 mph N/A   Overcast
5:53 PM 48.9 °F - 19.0 °F 31% 29.75 in 10.0 mi West 11.5 mph - N/A   Mostly Cloudy
6:53 PM 46.0 °F 41.4 °F 19.0 °F 34% 29.75 in 10.0 mi WSW 9.2 mph - N/A   Scattered Clouds
7:53 PM 44.1 °F 38.1 °F 19.9 °F 38% 29.75 in 10.0 mi SW 11.5 mph - N/A   Overcast
8:53 PM 39.0 °F 34.0 °F 21.9 °F 50% 29.78 in 10.0 mi SW 6.9 mph - N/A   Clear
9:53 PM 32.0 °F 25.6 °F 23.0 °F 69% 29.81 in 10.0 mi SW 6.9 mph - N/A   Clear
10:53 PM 34.0 °F 28.0 °F 24.1 °F 67% 29.81 in 10.0 mi WSW 6.9 mph - N/A   Scattered Clouds
11:53 PM 35.1 °F - 21.9 °F 59% 29.80 in 10.0 mi Calm Calm - N/A   Scattered Clouds